770  
AXUS43 KGID 190602  
MISGRI  
 
GID CWA HOURLY WEATHER ROUNDUP  
NATIONAL WEATHER SERVICE HASTINGS NE  
100 AM CDT TUE JUN 19 2018  
 
NOTE: "FAIR" INDICATES FEW OR NO CLOUDS BELOW 12,000 FEET WITH NO  
SIGNIFICANT WEATHER AND/OR OBSTRUCTIONS TO VISIBILITY.  
   
..SOUTH CENTRAL NEBRASKA
 
 
 
CITY SKY/WX TMP DP RH WIND PRES REMARKS  
GRAND ISLAND CLOUDY 74 70 87 W12 29.93S  
KEARNEY CLOUDY 73 69 87 N7 29.97S  
HASTINGS CLOUDY 72 66 81 SW7 29.95F  
ORD CLOUDY 70 69 97 NW12 29.95S  
YORK CLOUDY 73 66 78 S6 29.92S  
AURORA CLOUDY 74 67 78 S10 29.92S  
LEXINGTON CLOUDY 69 66 90 N9 29.99S  
HOLDREGE CLOUDY 69 69 99 N7 29.98R  
HEBRON LGT RAIN 74 68 83 S7 29.89F  
   
..NEBRASKA PANHANDLE
 
 
 
CITY SKY/WX TMP DP RH WIND PRES REMARKS  
CHADRON CLOUDY 57 57 100 E8 30.09S  
ALLIANCE LGT RAIN 57 57 100 NE9 30.09F  
SCOTTSBLUFF CLOUDY 60 56 86 NE18G26 30.08F  
SIDNEY TSTM 60 59 96 NE15 30.12R FOG  
   
..WESTERN AND NORTH CENTRAL NEBRASKA
 
 
 
CITY SKY/WX TMP DP RH WIND PRES REMARKS  
VALENTINE CLOUDY 63 62 97 N7 30.07R  
AINSWORTH FOG N/A N/A N/A N9 30.05R VSB 1  
ONEILL FOG 71 70 98 NW9 29.99R VSB 1/2  
BROKEN BOW CLOUDY 67 66 97 N12 30.01R  
IMPERIAL LGT RAIN 67 64 90 NE14 30.06F  
NORTH PLATTE CLOUDY 68 65 90 NE12 30.00F  
MCCOOK CLEAR 68 65 90 NE10 29.98R  
   
..EASTERN NEBRASKA
 
 
 
CITY SKY/WX TMP DP RH WIND PRES REMARKS  
NORFOLK CLOUDY 70 69 97 E7 29.92F  
SO SIOUX CITY CLOUDY 70 69 97 CALM 29.91R  
TEKAMAH LGT RAIN 71 69 93 E6 29.93F  
COLUMBUS CLOUDY 71 69 93 E6 29.92S  
ALBION MOCLDY 72 70 96 N7 29.92F  
OMAHA EPPLEY TSTM 73 70 90 S14 29.94F  
OFFUTT AFB TSTM 71 67 88 E10G24 29.94F  
MILLARD CLOUDY 73 70 90 SE13 29.95R  
LINCOLN PTCLDY 73 71 93 SE6 29.91F  
NEBRASKA CITY CLOUDY 74 73 94 SE5 29.95S  
BEATRICE CLOUDY 77 71 82 SE8 29.90F  
FALLS CITY PTCLDY 78 70 76 S8 29.93S  
   
..NORTHERN KANSAS
 
 
 
CITY SKY/WX TMP DP RH WIND PRES REMARKS  
GOODLAND CLEAR 67 63 87 E13G22 30.01R  
HILL CITY CLEAR 73 69 87 MISG 29.94S  
NORTON CLEAR 72 66 83 N10 29.96R  
PHILLIPSBURG CLEAR 75 66 73 E7 29.95R  
SMITH CENTER CLEAR 72 66 83 E10 29.94S  
HAYS CLOUDY 79 69 71 S14 29.92S  
RUSSELL CLEAR 81 70 69 S18G26 29.91S  
CONCORDIA CLOUDY 76 64 66 S16 29.90F  
SALINA CLEAR 78 72 81 S12 29.93S  
TOPEKA PTCLDY 80 72 76 S3 29.96R  
 
CLICK HERE TO GO TO PREVIOUS BULLETINS.

The Nexlab NE Page
The Nexlab KS Page Main Text Page